W5SDC Weather Reports


Display with metric or nautical units.
time (UTC)temp
F
wind
direction
speed
MPH
gust
MPH
rain 1hr
in
rain 24hr
in
rain mn
in
humidity
%
barometer
mb
20260503192542 80 136 6.0 9.0 0.00 0.00 0.00 39 1021.5
20260503192029 80 126 6.0 7.0 0.00 0.00 0.00 38 1021.5
20260503191517 79 154 8.0 15.0 0.00 0.00 0.00 37 1021.6
20260503191024 79 148 8.0 13.0 0.00 0.00 0.00 39 1021.6
20260503190530 80 159 8.0 14.0 0.00 0.00 0.00 40 1021.6
20260503190018 80 137 7.0 12.0 0.00 0.00 0.00 40 1021.8
20260503185545 80 158 7.0 9.0 0.00 0.00 0.00 39 1021.8
20260503185032 81 164 6.0 9.0 0.00 0.00 0.00 40 1022.0
20260503184520 80 170 5.0 8.0 0.00 0.00 0.00 40 1022.2
20260503184027 80 172 5.0 7.0 0.00 0.00 0.00 39 1022.2
20260503183515 79 179 8.0 15.0 0.00 0.00 0.00 39 1022.4
20260503183022 79 173 7.0 9.0 0.00 0.00 0.00 39 1022.4
20260503182528 79 209 8.0 10.0 0.00 0.00 0.00 39 1022.5
20260503182036 79 190 6.0 11.0 0.00 0.00 0.00 40 1022.5
20260503181523 79 177 8.0 10.0 0.00 0.00 0.00 39 1022.7
20260503181030 80 192 5.0 8.0 0.00 0.00 0.00 39 1022.9
20260503180518 79 182 5.0 10.0 0.00 0.00 0.00 40 1022.9
20260503180025 79 178 6.0 10.0 0.00 0.00 0.00 40 1023.0
20260503175531 79 180 7.0 10.0 0.00 0.00 0.00 40 1023.0
20260503175019 79 161 9.0 15.0 0.00 0.00 0.00 40 1023.0
20260503174526 79 168 6.0 12.0 0.00 0.00 0.00 41 1023.1
20260503174032 79 155 7.0 12.0 0.00 0.00 0.00 40 1023.1
20260503173521 79 187 7.0 11.0 0.00 0.00 0.00 41 1023.2
20260503173028 78 191 7.0 11.0 0.00 0.00 0.00 41 1023.2
20260503172516 79 188 6.0 10.0 0.00 0.00 0.00 43 1023.4
20260503172022 78 207 6.0 8.0 0.00 0.00 0.00 44 1023.5
20260503171529 78 199 7.0 9.0 0.00 0.00 0.00 45 1023.5
20260503171017 77 178 6.0 10.0 0.00 0.00 0.00 45 1023.5
20260503170524 78 187 10.0 13.0 0.00 0.00 0.00 45 1023.5
20260503150518 75 222 5.0 8.0 0.00 0.00 0.00 57 1024.2
20260503131023 63 213 3.0 5.0 0.00 0.00 0.00 73 1023.6
20260503130536 62 199 1.0 3.0 0.00 0.00 0.00 74 1023.6
20260503110524 53 192 3.0 3.0 0.00 0.00 0.00 90 1022.5
20260503081529 55 210 3.0 3.0 0.00 0.00 0.00 86 1022.3
20260503081018 55 213 3.0 3.0 0.00 0.00 0.00 86 1022.4
20260503080524 55 207 3.0 4.0 0.00 0.00 0.00 86 1022.4
20260503072522 56 211 2.0 3.0 0.00 0.00 0.00 84 1022.5
20260503072029 56 206 2.0 3.0 0.00 0.00 0.00 83 1022.5
20260503071517 57 205 2.0 3.0 0.00 0.00 0.00 83 1022.6
20260503071044 57 206 2.0 3.0 0.00 0.00 0.00 83 1022.7
20260503070530 57 201 3.0 3.0 0.00 0.00 0.00 82 1022.7
20260503055040 57 0.0 0.0 0.00 0.00 0.00 82 1022.8
20260503054546 57 0.0 0.0 0.00 0.00 0.00 82 1022.9
20260503054033 57 0.0 1.0 0.00 0.00 0.00 81 1022.9
20260503053521 58 0.0 0.0 0.00 0.00 0.00 80 1023.0
20260503053048 58 203 1.0 2.0 0.00 0.00 0.00 79 1023.0
20260503052516 59 195 1.0 2.0 0.00 0.00 0.00 78 1022.9
20260503052022 59 198 1.0 2.0 0.00 0.00 0.00 77 1022.9
20260503051630 59 196 2.0 2.0 0.00 0.00 0.00 76 1022.9
20260503051017 60 200 2.0 2.0 0.00 0.00 0.00 75 1022.9
20260503050524 60 199 2.0 2.0 0.00 0.00 0.00 75 1022.9
20260503050031 60 184 2.0 3.0 0.00 0.00 0.00 75 1022.7
20260503045519 59 175 2.0 3.0 0.00 0.00 0.00 75 1022.7
20260503045025 59 177 2.0 2.0 0.00 0.00 0.00 75 1022.7
20260503044532 59 181 2.0 2.0 0.00 0.00 0.00 76 1022.7
20260503044021 59 0.0 0.0 0.00 0.00 0.00 77 1022.7
20260503043607 58 0.0 0.0 0.00 0.00 0.00 78 1022.7
20260503043016 58 0.0 0.0 0.00 0.00 0.00 79 1022.7
20260503042522 58 0.0 0.0 0.00 0.00 0.00 79 1022.7
20260503042048 58 0.0 0.0 0.00 0.00 0.00 78 1022.7
20260503041537 58 0.0 0.0 0.00 0.00 0.00 77 1022.6
20260503041023 59 0.0 0.0 0.00 0.00 0.00 76 1022.5
20260503040530 59 0.0 0.0 0.00 0.00 0.00 75 1022.5
20260503040058 60 203 0.0 1.0 0.00 0.00 0.00 74 1022.7
20260503035545 60 203 0.0 1.0 0.00 0.00 0.00 74 1022.7
20260503035032 60 0.0 0.0 0.00 0.00 0.00 74 1022.5
20260503034520 60 0.0 0.0 0.00 0.00 0.00 72 1022.4
20260503034047 61 0.0 0.0 0.00 0.00 0.00 70 1022.4
20260503033553 61 180 0.0 1.0 0.00 0.00 0.00 69 1022.4
20260503033021 62 192 1.0 2.0 0.00 0.00 0.00 68 1022.4
20260503032528 62 180 1.0 2.0 0.00 0.00 0.00 68 1022.4
20260503032016 62 170 2.0 2.0 0.00 0.00 0.00 68 1022.4
20260503031523 62 180 2.0 3.0 0.00 0.00 0.00 69 1022.3
20260503031029 62 163 2.0 2.0 0.00 0.00 0.00 69 1022.2
20260503030518 62 164 2.0 2.0 0.00 0.00 0.00 69 1022.2
20260503030024 62 169 1.0 2.0 0.00 0.00 0.00 70 1022.2
20260503025551 62 172 1.0 2.0 0.00 0.00 0.00 70 1022.2
20260503025019 62 139 0.0 2.0 0.00 0.00 0.00 70 1022.1
20260503024546 62 0.0 0.0 0.00 0.00 0.00 70 1022.0
20260503024052 62 164 1.0 2.0 0.00 0.00 0.00 70 1021.9
20260503023520 62 158 0.0 1.0 0.00 0.00 0.00 70 1021.5
20260503023027 62 158 0.0 1.0 0.00 0.00 0.00 70 1021.5
20260503022515 63 0.0 0.0 0.00 0.00 0.00 69 1021.5
20260503022022 63 0.0 0.0 0.00 0.00 0.00 68 1021.5
20260503021549 64 0.0 0.0 0.00 0.00 0.00 66 1021.5
20260503021017 64 148 1.0 2.0 0.00 0.00 0.00 64 1021.4
20260503020544 65 136 2.0 2.0 0.00 0.00 0.00 63 1021.4
20260503020030 65 138 2.0 2.0 0.00 0.00 0.00 62 1021.3
20260503015519 65 136 2.0 3.0 0.00 0.00 0.00 62 1021.3
20260503015025 65 147 2.0 3.0 0.00 0.00 0.00 61 1021.3
20260503014532 66 138 2.0 2.0 0.00 0.00 0.00 61 1021.3
20260503014020 66 127 2.0 2.0 0.00 0.00 0.00 60 1021.3
20260503013527 67 129 1.0 2.0 0.00 0.00 0.00 59 1021.3
20260503013015 67 139 1.0 2.0 0.00 0.00 0.00 58 1021.3
20260503012522 67 154 2.0 3.0 0.00 0.00 0.00 57 1021.2
20260503012129 68 125 1.0 3.0 0.00 0.00 0.00 56 1021.1
20260503011537 69 127 1.0 2.0 0.00 0.00 0.00 54 1021.1
20260503011023 70 145 1.0 2.0 0.00 0.00 0.00 53 1021.0
20260503010530 71 146 1.0 2.0 0.00 0.00 0.00 53 1021.0
20260503010018 71 116 1.0 2.0 0.00 0.00 0.00 50 1021.0
20260503005525 72 48 1.0 4.0 0.00 0.00 0.00 49 1021.0
20260503005031 73 17 2.0 3.0 0.00 0.00 0.00 48 1021.0
20260503004520 73 22 2.0 4.0 0.00 0.00 0.00 47 1020.9
20260503004147 73 37 3.0 4.0 0.00 0.00 0.00 47 1020.9
20260503003533 74 33 2.0 3.0 0.00 0.00 0.00 46 1020.9
20260503003021 74 15 1.0 2.0 0.00 0.00 0.00 45 1020.9
20260503002528 74 106 2.0 4.0 0.00 0.00 0.00 45 1020.9
20260503002016 74 35 3.0 5.0 0.00 0.00 0.00 45 1020.9
20260503001522 74 31 3.0 5.0 0.00 0.00 0.00 44 1020.9
20260503001030 75 25 3.0 5.0 0.00 0.00 0.00 43 1020.9
20260503000517 75 17 4.0 5.0 0.00 0.00 0.00 43 1020.9
20260503000024 75 347 4.0 5.0 0.00 0.00 0.00 44 1020.8
20260502235531 75 346 5.0 9.0 0.00 0.00 0.00 44 1020.8
20260502235019 75 344 4.0 6.0 0.00 0.00 0.00 44 1020.7
20260502234526 75 7 4.0 7.0 0.00 0.00 0.00 45 1020.7
20260502234053 75 345 5.0 8.0 0.00 0.00 0.00 43 1020.7
20260502233541 75 349 4.0 6.0 0.00 0.00 0.00 44 1020.7
20260502233027 75 134 4.0 5.0 0.00 0.00 0.00 44 1020.7
20260502232516 76 31 4.0 6.0 0.00 0.00 0.00 45 1020.7
20260502232022 76 354 4.0 6.0 0.00 0.00 0.00 44 1020.7
20260502231529 76 323 5.0 8.0 0.00 0.00 0.00 44 1020.6
20260502231037 76 344 5.0 6.0 0.00 0.00 0.00 44 1020.6
20260502230524 77 34 5.0 8.0 0.00 0.00 0.00 45 1020.6
20260502230030 76 129 2.0 3.0 0.00 0.00 0.00 45 1020.7
20260502225539 75 27 4.0 6.0 0.00 0.00 0.00 45 1020.7
20260502225025 75 70 4.0 6.0 0.00 0.00 0.00 45 1020.6
20260502224532 75 13 5.0 7.0 0.00 0.00 0.00 46 1020.6
20260502224021 75 54 4.0 6.0 0.00 0.00 0.00 46 1020.7
20260502223527 75 5 6.0 7.0 0.00 0.00 0.00 46 1020.8
20260502223015 75 327 4.0 7.0 0.00 0.00 0.00 45 1020.8
20260502222522 75 359 4.0 6.0 0.00 0.00 0.00 45 1020.8
20260502222028 75 4 5.0 8.0 0.00 0.00 0.00 46 1020.8
20260502221517 74 7 6.0 8.0 0.00 0.01 0.00 46 1020.9
20260502221023 75 355 5.0 7.0 0.00 0.01 0.00 45 1020.9
20260502220530 74 351 5.0 10.0 0.00 0.01 0.00 45 1020.9
20260502220018 74 2 7.0 11.0 0.00 0.01 0.00 45 1020.9
20260502215545 74 2 7.0 11.0 0.00 0.01 0.00 45 1020.9
20260502215031 74 30 6.0 8.0 0.00 0.02 0.00 45 1021.0
20260502214519 75 69 6.0 9.0 0.00 0.03 0.00 44 1021.0
20260502214046 75 23 5.0 8.0 0.00 0.05 0.00 45 1021.0
20260502213533 75 69 6.0 9.0 0.00 0.05 0.00 44 1021.2
20260502213041 75 10 6.0 10.0 0.00 0.05 0.00 44 1021.2
20260502212608 75 24 5.0 8.0 0.00 0.05 0.00 43 1021.4
20260502212036 75 56 6.0 8.0 0.00 0.05 0.00 43 1021.4
20260502211523 75 9 6.0 8.0 0.00 0.06 0.00 43 1021.5
20260502211029 75 68 7.0 11.0 0.00 0.06 0.00 43 1021.6
20260502210517 74 346 7.0 9.0 0.00 0.06 0.00 42 1021.7
20260502210024 74 339 9.0 11.0 0.00 0.06 0.00 43 1021.8
20260502205531 75 61 6.0 8.0 0.00 0.06 0.00 43 1021.8
20260502205019 75 11 5.0 8.0 0.00 0.06 0.00 43 1021.9
20260502204526 75 356 6.0 8.0 0.00 0.06 0.00 43 1022.0
20260502204033 73 97 4.0 9.0 0.00 0.06 0.00 43 1022.0
20260502203521 73 1 6.0 9.0 0.00 0.06 0.00 45 1022.0
20260502203027 75 18 7.0 12.0 0.00 0.06 0.00 44 1022.0
20260502202515 75 20 4.0 7.0 0.00 0.06 0.00 45 1022.1
20260502202022 74 347 6.0 10.0 0.00 0.06 0.00 45 1022.2
20260502201529 74 6 8.0 11.0 0.00 0.06 0.00 44 1022.2
20260502201017 74 321 7.0 11.0 0.00 0.07 0.00 43 1022.2
20260502200523 74 336 8.0 14.0 0.00 0.07 0.00 44 1022.2
20260502200030 74 9 6.0 9.0 0.00 0.07 0.00 45 1022.2
20260502195539 74 33 6.0 9.0 0.00 0.07 0.00 45 1022.2
20260502195025 74 346 7.0 9.0 0.00 0.07 0.00 44 1022.2
20260502194532 74 342 6.0 9.0 0.00 0.07 0.00 47 1022.2
20260502194020 74 9 5.0 11.0 0.00 0.07 0.00 48 1022.2
20260502193527 74 25 7.0 9.0 0.00 0.08 0.00 48 1022.2
20260502193015 73 356 7.0 11.0 0.00 0.09 0.00 50 1022.2